Zurück zum Katalog

ARIANE 1 DEB

AktivSSO
NORAD 17129·DEBRIS·🇫🇷 France

Gestartet Feb 22, 1986 von Guiana Space Centre

Loading…

Nächste Überflüge (nächste 24 Stunden)

TLE

AktuellSource: Space-Track

Epoche: Sep 14, 2026, 12:38 UTC

1 17129U 86019Y   26257.52696513  .00000098  00000-0  58101-4 0  9999
2 17129  98.3081 263.3387 0031283 284.0800 243.5940 14.26128103 19388

Verfolge ARIANE 1 DEB in Echtzeit mit AllMySat

Download on the App Store